1506891600.58,13716,15.5,74362.3,-1.55,-40.47,-40.73,0,*54
1506891601.79,13717,15.5,74362.0,-1.55,-40.47,-40.65,0,*52
1506891602.99,13718,15.5,74358.5,-1.55,-40.47,-40.65,0,*5D
1506891604.2,13719,15.5,74356.5,-1.55,-40.35,-40.65,0,*59
1506891605.41,13720,15.5,74358.0,-1.59,-40.47,-40.53,0,*5F
1506891606.63,13721,15.5,74356.5,-1.59,-40.47,-40.53,0,*5E
1506891607.84,13722,15.5,74362.8,-1.55,-40.47,-40.65,0,*54
1506891609.07,13723,15.5,74358.5,-1.59,-40.65,-40.85,0,*57
1506891610.28,13724,15.5,74358.0,-1.59,-40.35,-40.65,0,*5B
1506891611.49,13725,15.5,74356.0,-1.59,-40.47,-40.65,0,*5F
1506891612.7,13726,15.5,74356.0,-1.55,-40.53,-40.73,0,*52
1506891613.93,13727,15.5,74358.0,-1.59,-40.53,-40.85,0,*56
1506891615.17,13728,15.5,74356.8,-1.59,-40.53,-40.85,0,*59
1506891616.4,13729,15.5,74356.0,-1.55,-40.29,-40.53,0,*52
1506891617.61,13730,15.5,74358.5,-1.59,-40.53,-40.73,0,*59
1506891618.84,13731,15.5,74358.5,-1.59,-40.53,-40.85,0,*51
1506891620.05,13732,15.5,74358.8,-1.59,-40.53,-40.65,0,*5C
1506891621.26,13733,15.5,74358.8,-1.55,-40.47,-40.65,0,*54
1506891622.47,13734,15.5,74360.5,-1.59,-40.47,-40.73,0,*58
1506891623.7,13735,15.5,74358.3,-1.59,-40.29,-40.65,0,*56
1506891624.92,13736,15.5,74356.5,-1.59,-40.15,-40.35,0,*5F
1506891626.13,13737,15.5,74354.8,-1.59,-40.53,-40.73,0,*5E
1506891627.34,13738,15.5,74358.8,-1.59,-40.47,-40.65,0,*53
1506891628.57,13739,15.5,74354.5,-1.59,-40.29,-40.47,0,*5A
1506891629.78,13740,15.5,74358.8,-1.59,-40.35,-40.53,0,*5C
1506891630.99,13741,15.5,74360.0,-1.59,-40.35,-40.53,0,*5D
1506891632.21,13742,15.5,74356.0,-1.59,-40.35,-40.73,0,*5C
1506891633.43,13743,15.5,74356.8,-1.59,-40.15,-40.47,0,*58
1506891634.66,13744,15.5,74356.8,-1.59,-40.29,-40.47,0,*50
1506891635.88,13745,15.5,74358.3,-1.59,-40.15,-40.35,0,*5B
1506891637.09,13746,15.5,74358.8,-1.55,-40.47,-40.53,0,*53
1506891638.29,13747,15.5,74358.0,-1.59,-40.53,-40.73,0,*59
1506891639.54,13748,15.5,74358.0,-1.59,-40.15,-40.29,0,*5B
1506891640.77,13749,15.5,74358.8,-1.59,-40.29,-40.47,0,*5D
1506891641.98,13750,15.5,74358.0,-1.59,-40.47,-40.65,0,*5D
1506891643.21,13751,15.5,74356.0,-1.59,-40.29,-40.47,0,*54
1506891644.43,13752,15.5,74358.5,-1.59,-40.35,-40.53,0,*5F
1506891645.64,13753,15.5,74358.0,-1.59,-40.47,-40.53,0,*5B
1506891646.85,13754,15.5,74356.5,-1.59,-40.35,-40.53,0,*59
1506891648.07,13755,15.5,74354.5,-1.59,-40.47,-40.53,0,*5D
1506891649.33,13756,15.5,74356.5,-1.61,-40.35,-40.59,0,*5A
1506891650.55,13757,15.5,74358.8,-1.59,-40.15,-40.47,0,*5D
1506891651.78,13758,15.5,74360.3,-1.59,-40.29,-40.35,0,*58
1506891653.01,13759,15.5,74358.8,-1.55,-40.29,-40.35,0,*55
1506891654.22,13760,15.5,74356.5,-1.59,-40.35,-40.65,0,*5B
1506891655.48,13761,15.5,74358.8,-1.59,-40.29,-40.29,0,*5F
1506891656.72,13762,15.5,74352.5,-1.59,-40.15,-40.29,0,*53
1506891657.94,13763,15.5,74358.8,-1.59,-40.15,-40.35,0,*5F
1506891659.18,13764,15.5,74356.8,-1.59,-40.29,-40.35,0,*57
1506891660.39,13765,15.5,74354.3,-1.55,-40.47,-40.53,0,*52
1506891661.6,13766,15.5,74356.3,-1.59,-40.35,-40.65,0,*5D
1506891662.81,13767,15.5,74356.8,-1.59,-40.35,-40.65,0,*5C
1506891664.02,13768,15.5,74358.0,-1.59,-40.35,-40.53,0,*56
1506891665.25,13769,15.5,74362.5,-1.59,-40.29,-40.35,0,*5A
1506891666.47,13770,15.5,74358.5,-1.59,-40.15,-40.47,0,*58
1506891667.68,13771,15.5,74356.5,-1.55,-40.35,-40.65,0,*57
1506891668.89,13772,15.5,74358.3,-1.59,-40.35,-40.47,0,*58
1506891670.12,13773,15.5,74360.3,-1.59,-40.29,-40.53,0,*51
1506891671.33,13774,15.5,74358.0,-1.59,-40.53,-40.65,0,*5E
1506891672.55,13775,15.5,74356.0,-1.55,-40.15,-40.47,0,*51
1506891673.78,13776,15.5,74360.8,-1.59,-40.29,-40.53,0,*54
1506891675.02,13777,15.5,74358.0,-1.55,-40.29,-40.53,0,*59
1506891676.25,13778,15.5,74356.5,-1.59,-40.53,-40.85,0,*5C
1506891677.47,13779,15.5,74362.0,-1.59,-40.15,-40.35,0,*54
1506891678.68,13780,15.5,74360.5,-1.59,-40.47,-40.65,0,*50
1506891679.92,13781,15.5,74356.3,-1.59,-40.29,-40.65,0,*59
1506891681.13,13782,15.5,74362.5,-1.59,-40.35,-40.53,0,*52
1506891682.36,13783,15.5,74352.3,-1.59,-40.29,-40.53,0,*5E
1506891683.6,13784,15.5,74358.5,-1.59,-40.29,-40.47,0,*5C
1506891684.81,13785,15.5,74358.0,-1.59,-40.35,-40.53,0,*55
1506891686.02,13786,15.5,74358.8,-1.59,-40.47,-40.53,0,*53
1506891687.26,13787,15.5,74356.0,-1.59,-40.29,-40.53,0,*5A
1506891688.47,13788,15.5,74356.8,-1.59,-40.47,-40.53,0,*5D
1506891689.68,13789,15.5,74360.8,-1.59,-40.47,-40.65,0,*59
1506891690.89,13790,15.5,74358.0,-1.59,-40.35,-40.65,0,*54
1506891692.11,13791,15.5,74356.3,-1.59,-40.47,-40.53,0,*55
1506891693.34,13792,15.5,74358.0,-1.59,-40.53,-40.85,0,*58
1506891694.55,13793,15.5,74356.8,-1.59,-40.65,-40.73,0,*55
1506891695.76,13794,15.5,74356.3,-1.59,-40.47,-40.73,0,*52
1506891696.97,13795,15.5,74358.3,-1.59,-40.47,-40.73,0,*53
1506891698.18,13796,15.5,74354.0,-1.59,-40.35,-40.65,0,*52
1506891699.39,13797,15.5,74356.3,-1.59,-40.35,-40.65,0,*53
1506891700.6,13798,15.5,74356.5,-1.59,-40.65,-40.91,0,*52
1506891701.82,13799,15.5,74358.3,-1.59,-40.65,-40.91,0,*53
1506891703.02,13800,15.5,74358.5,-1.59,-40.65,-40.73,0,*50
1506891704.23,13801,15.5,74358.8,-1.59,-40.47,-40.65,0,*56
1506891705.46,13802,15.5,74360.3,-1.61,-40.53,-40.73,0,*5C
1506891706.72,13803,15.5,74358.3,-1.61,-40.59,-40.73,0,*57
1506891707.96,13804,15.5,74356.3,-1.61,-40.73,-40.91,0,*54
1506891709.2,13805,15.5,74358.0,-1.63,-40.73,-40.97,0,*51
1506891710.43,13806,15.5,74352.8,-1.61,-40.53,-40.73,0,*58
1506891711.71,13807,15.5,74356.5,-1.61,-40.59,-40.79,0,*59
1506891712.94,13808,15.5,74354.3,-1.63,-40.53,-40.59,0,*5C
1506891714.2,13809,15.5,74356.0,-1.63,-40.21,-40.41,0,*51
1506891715.41,13810,15.5,74354.0,-1.63,-40.35,-40.53,0,*5F
1506891716.71,13811,15.5,74360.0,-1.61,-40.41,-40.59,0,*55
1506891717.97,13812,15.5,74356.5,-1.61,-40.41,-40.53,0,*5C
1506891719.24,13813,15.5,74358.8,-1.63,-40.41,-40.59,0,*55
1506891720.5,13814,15.5,74358.5,-1.61,-40.35,-40.59,0,*53
1506891721.8,13815,15.5,74354.5,-1.61,-40.41,-40.59,0,*51
1506891723.07,13816,15.5,74358.0,-1.63,-40.41,-40.59,0,*50
1506891724.32,13817,15.5,74358.5,-1.63,-40.21,-40.41,0,*5E
1506891725.56,13818,15.5,74356.0,-1.61,-40.35,-40.53,0,*55
1506891726.82,13819,15.5,74356.5,-1.61,-40.35,-40.59,0,*5E
1506891728.12,13820,15.5,74356.3,-1.61,-40.41,-40.59,0,*57
1506891729.38,13821,15.5,74356.8,-1.61,-40.35,-40.59,0,*55
1506891730.62,13822,15.5,74360.3,-1.63,-40.35,-40.41,0,*5D
1506891731.9,13823,15.5,74356.3,-1.61,-40.21,-40.59,0,*52
1506891733.14,13824,15.5,74358.8,-1.63,-40.35,-40.41,0,*5B
1506891734.43,13825,15.5,74356.3,-1.61,-40.41,-40.41,0,*5B
1506891735.7,13826,15.5,74358.8,-1.63,-40.41,-40.59,0,*53
1506891736.99,13827,15.5,74358.5,-1.61,-40.41,-40.59,0,*50
1506891738.22,13828,15.5,74356.3,-1.63,-40.53,-40.79,0,*5C
1506891739.45,13829,15.5,74354.8,-1.61,-40.53,-40.73,0,*55
1506891740.69,13830,15.5,74356.0,-1.61,-40.73,-40.91,0,*53
1506891741.92,13831,15.5,74358.5,-1.61,-40.53,-40.73,0,*5C
1506891743.16,13832,15.5,74356.5,-1.63,-40.41,-40.73,0,*5E
1506891744.42,13833,15.5,74356.5,-1.61,-40.35,-40.59,0,*56
1506891745.68,13834,15.5,74358.5,-1.63,-40.21,-40.41,0,*5F
1506891746.94,13835,15.5,74356.5,-1.63,-40.21,-40.41,0,*5E
1506891748.18,13836,15.5,74356.5,-1.61,-40.35,-40.53,0,*59
1506891749.47,13837,15.5,74356.0,-1.61,-40.41,-40.59,0,*51
1506891750.73,13838,15.5,74356.3,-1.61,-40.35,-40.59,0,*5D
1506891751.97,13839,15.5,74356.5,-1.63,-40.35,-40.59,0,*5E
1506891753.25,13840,15.5,74354.8,-1.61,-40.21,-40.41,0,*5E
1506891754.49,13841,15.5,74358.0,-1.63,-40.35,-40.41,0,*58
1506891755.74,13842,15.5,74356.5,-1.61,-40.21,-40.35,0,*5F
1506891756.98,13843,15.5,74356.5,-1.61,-40.35,-40.53,0,*5B
1506891758.24,13844,15.5,74358.3,-1.61,-40.21,-40.53,0,*59
1506891759.48,13845,15.5,74356.3,-1.61,-40.35,-40.53,0,*5D
1506891760.7,13846,15.5,74356.0,-1.63,-40.21,-40.35,0,*59
1506891761.98,13847,15.5,74358.0,-1.61,-40.15,-40.41,0,*5E
1506891763.23,13848,15.5,74356.8,-1.61,-40.21,-40.35,0,*55
1506891764.47,13849,15.5,74354.8,-1.61,-40.35,-40.53,0,*51
1506891765.75,13850,15.5,74354.0,-1.61,-40.21,-40.41,0,*5F
1506891766.99,13851,15.5,74356.8,-1.61,-40.15,-40.35,0,*5A
1506891768.28,13852,15.5,74358.3,-1.61,-40.21,-40.41,0,*5D
1506891769.53,13853,15.44,74352.3,-1.61,-40.21,-40.35,0,*5F
1506891770.78,13854,15.44,74352.3,-1.61,-40.21,-40.35,0,*58
1506891772.04,13855,15.5,74354.8,-1.61,-40.21,-40.35,0,*59
1506891773.31,13856,15.5,74352.5,-1.61,-40.15,-40.21,0,*58
1506891774.57,13857,15.5,74358.3,-1.61,-40.35,-40.59,0,*54
1506891775.81,13858,15.5,74352.5,-1.61,-40.15,-40.35,0,*53
1506891777.05,13859,15.5,74352.8,-1.59,-40.09,-40.15,0,*56
1506891778.3,13860,15.5,74352.5,-1.59,-40.15,-40.29,0,*5E
1506891779.55,13861,15.44,74354.3,-1.59,-40.15,-40.29,0,*5F
1506891780.77,13862,15.5,74356.3,-1.59,-40.15,-40.35,0,*51
1506891782.0,13863,15.5,74358.5,-1.55,-40.29,-40.53,0,*53
1506891783.21,13864,15.5,74356.3,-1.59,-40.35,-40.73,0,*57
1506891784.44,13865,15.5,74354.3,-1.59,-40.29,-40.47,0,*5C
1506891785.68,13866,15.5,74356.8,-1.55,-40.29,-40.53,0,*56
1506891786.94,13867,15.5,74354.8,-1.61,-40.41,-40.53,0,*5E
1506891788.18,13868,15.5,74356.5,-1.61,-40.53,-40.91,0,*5C
1506891789.41,13869,15.5,74354.8,-1.55,-40.29,-40.47,0,*5C
1506891790.64,13870,15.44,74354.0,-1.59,-40.29,-40.47,0,*58
1506891791.86,13871,15.44,74352.8,-1.59,-40.15,-40.35,0,*53
1506891793.11,13872,15.5,74356.0,-1.59,-40.15,-40.29,0,*5D
1506891794.34,13873,15.5,74354.0,-1.59,-40.29,-40.47,0,*5B
1506891795.57,13874,15.5,74354.0,-1.59,-40.29,-40.47,0,*5C
1506891796.81,13875,15.44,74354.5,-1.59,-40.09,-40.35,0,*5A
1506891798.08,13876,15.5,74354.5,-1.59,-40.09,-40.09,0,*56
1506891799.35,13877,15.5,74354.8,-1.59,-40.09,-40.29,0,*55
1506891800.59,13878,15.44,74352.3,-1.59,-40.15,-40.29,0,*57
1506891801.81,13879,15.5,74356.5,-1.59,-40.15,-40.35,0,*5B
1506891803.06,13880,15.44,74354.0,-1.59,-40.15,-40.29,0,*50
1506891804.3,13881,15.5,74356.3,-1.59,-40.03,-40.09,0,*54
1506891805.54,13882,15.44,74356.0,-1.55,-40.09,-40.15,0,*5C
1506891806.77,13883,15.5,74356.0,-1.59,-40.29,-40.53,0,*51
1506891807.99,13884,15.5,74358.3,-1.59,-40.15,-40.35,0,*59
1506891809.24,13885,15.5,74358.0,-1.59,-40.09,-40.15,0,*57
1506891810.48,13886,15.5,74356.5,-1.59,-40.09,-40.15,0,*54
1506891811.75,13887,15.5,74358.8,-1.59,-40.09,-40.29,0,*5A
1506891812.97,13888,15.5,74358.0,-1.59,-40.15,-40.53,0,*55
1506891814.2,13889,15.5,74352.8,-1.59,-40.29,-40.35,0,*5B
1506891815.42,13890,15.5,74354.3,-1.55,-40.15,-40.47,0,*55
1506891816.64,13891,15.5,74358.5,-1.55,-40.15,-40.35,0,*51
1506891817.85,13892,15.5,74358.8,-1.59,-40.15,-40.35,0,*5E
1506891819.07,13893,15.44,74358.5,-1.59,-40.35,-40.53,0,*5D
1506891820.28,13894,15.5,74358.0,-1.55,-40.35,-40.53,0,*56
1506891821.49,13895,15.5,74358.0,-1.55,-40.35,-40.53,0,*57
1506891822.69,13896,15.44,74354.0,-1.55,-40.35,-40.47,0,*51
1506891823.94,13897,15.44,74352.3,-1.55,-40.15,-40.29,0,*5A
1506891825.17,13898,15.5,74360.8,-1.59,-40.29,-40.35,0,*5B
1506891826.38,13899,15.5,74358.5,-1.59,-40.35,-40.53,0,*57
1506891827.63,13900,15.44,74354.5,-1.59,-40.15,-40.29,0,*59
1506891828.85,13901,15.5,74354.0,-1.59,-40.15,-40.35,0,*55
1506891830.07,13902,15.44,74358.8,-1.59,-40.15,-40.35,0,*56
1506891831.29,13903,15.5,74358.3,-1.55,-40.15,-40.35,0,*5B
1506891832.5,13904,15.44,74354.3,-1.55,-40.15,-40.35,0,*5C
1506891833.73,13905,15.5,74358.3,-1.59,-40.15,-40.53,0,*51
1506891834.95,13906,15.44,74354.0,-1.59,-40.15,-40.53,0,*52
1506891836.17,13907,15.44,74352.0,-1.59,-40.15,-40.53,0,*53
1506891837.42,13908,15.44,74352.0,-1.55,-40.15,-40.29,0,*5D
1506891838.66,13909,15.5,74354.5,-1.59,-40.15,-40.29,0,*50
1506891839.88,13910,15.5,74354.3,-1.59,-40.15,-40.35,0,*55
1506891841.1,13911,15.5,74356.3,-1.59,-40.15,-40.47,0,*51
1506891842.32,13912,15.44,74354.3,-1.59,-40.15,-40.35,0,*57
1506891843.59,13913,15.44,74352.0,-1.59,-40.09,-40.09,0,*54
1506891844.86,13914,15.44,74348.0,-1.55,-40.09,-40.29,0,*5D
1506891846.1,13915,15.5,74352.8,-1.55,-40.09,-40.15,0,*53
1506891847.36,13916,15.5,74356.3,-1.55,-40.09,-40.29,0,*5F
1506891848.63,13917,15.44,74354.3,-1.59,-40.09,-40.09,0,*50
1506891849.87,13918,15.44,74350.3,-1.55,-40.09,-40.35,0,*5C
1506891851.08,13919,15.5,74354.0,-1.55,-40.15,-40.35,0,*50
1506891852.31,13920,15.44,74348.0,-1.55,-40.29,-40.35,0,*55
1506891853.56,13921,15.44,74350.0,-1.55,-40.15,-40.29,0,*56
1506891854.8,13922,15.44,74350.8,-1.55,-40.15,-40.29,0,*55
1506891856.07,13923,15.5,74356.8,-1.55,-40.09,-40.09,0,*5B
1506891857.28,13924,15.44,74352.3,-1.55,-40.15,-40.35,0,*5E
1506891858.5,13925,15.44,74352.3,-1.55,-40.15,-40.35,0,*5F
1506891859.76,13926,15.5,74356.0,-1.55,-40.09,-40.29,0,*5C
1506891861.01,13927,15.44,74352.0,-1.55,-40.15,-40.29,0,*50
1506891862.21,13928,15.5,74356.5,-1.55,-40.35,-40.65,0,*55
1506891863.47,13929,15.5,74352.8,-1.53,-40.03,-40.21,0,*57
1506891864.73,13930,15.5,74352.5,-1.53,-40.03,-40.21,0,*5F
1506891865.97,13931,15.5,74354.8,-1.55,-40.09,-40.15,0,*55
1506891867.17,13932,15.5,74358.0,-1.55,-40.35,-40.47,0,*5E
1506891868.4,13933,15.5,74354.3,-1.55,-40.15,-40.53,0,*58
1506891869.61,13934,15.44,74352.3,-1.55,-40.15,-40.47,0,*5A
1506891870.84,13935,15.5,74354.8,-1.59,-40.29,-40.47,0,*58
1506891872.06,13936,15.5,74354.0,-1.55,-40.15,-40.47,0,*58
1506891873.29,13937,15.5,74354.5,-1.55,-40.29,-40.35,0,*53
1506891874.5,13938,15.44,74352.5,-1.55,-40.35,-40.65,0,*54
1506891875.71,13939,15.5,74356.0,-1.55,-40.35,-40.53,0,*50
1506891876.94,13940,15.5,74358.0,-1.55,-40.29,-40.47,0,*56
1506891878.15,13941,15.44,74354.0,-1.55,-40.35,-40.53,0,*5F
1506891879.38,13942,15.5,74356.5,-1.55,-40.29,-40.35,0,*51
1506891880.61,13943,15.5,74356.3,-1.55,-40.29,-40.47,0,*55
1506891881.82,13944,15.44,74356.0,-1.55,-40.15,-40.47,0,*5D
1506891883.03,13945,15.44,74356.0,-1.55,-40.47,-40.65,0,*5B
1506891884.26,13946,15.44,74354.5,-1.55,-40.65,-40.85,0,*56
1506891885.5,13947,15.5,74356.5,-1.55,-40.53,-40.85,0,*52
1506891886.71,13948,15.5,74358.0,-1.59,-40.47,-40.65,0,*5A
1506891887.92,13949,15.5,74358.3,-1.59,-40.47,-40.65,0,*5B
1506891889.12,13950,15.44,74354.0,-1.55,-40.47,-40.65,0,*5F
1506891890.33,13951,15.5,74356.3,-1.55,-40.47,-40.73,0,*59
1506891891.54,13952,15.5,74356.5,-1.55,-40.53,-40.73,0,*5F
1506891892.75,13953,15.44,74352.0,-1.55,-40.53,-40.91,0,*52
1506891893.97,13954,15.44,74354.3,-1.59,-40.15,-40.47,0,*50
1506891895.19,13955,15.5,74358.8,-1.59,-40.15,-40.35,0,*54
1506891896.4,13956,15.5,74356.0,-1.55,-40.15,-40.35,0,*5B
1506891897.64,13957,15.44,74354.8,-1.55,-40.29,-40.53,0,*55
1506891898.85,13958,15.5,74356.0,-1.55,-40.47,-40.53,0,*52
1506891900.06,13959,15.5,74356.3,-1.55,-40.35,-40.53,0,*56
1506891901.27,13960,15.44,74352.5,-1.55,-40.03,-40.15,0,*5B
1506891902.53,13961,15.5,74354.3,-1.55,-40.09,-40.29,0,*5F
1506891903.75,13962,15.44,74348.0,-1.55,-40.15,-40.35,0,*5C
1506891904.99,13963,15.44,74350.8,-1.59,-40.09,-40.15,0,*5E
1506891906.25,13964,15.44,74354.3,-1.55,-40.09,-40.29,0,*5A
1506891907.5,13965,15.5,74354.3,-1.55,-40.15,-40.29,0,*56
1506891908.73,13966,15.5,74352.3,-1.55,-40.09,-40.35,0,*55
1506891909.95,13967,15.44,74352.5,-1.55,-40.15,-40.35,0,*59
1506891911.16,13968,15.5,74354.5,-1.55,-40.03,-40.35,0,*51
1506891912.4,13969,15.5,74354.3,-1.59,-40.09,-40.35,0,*56
1506891913.64,13970,15.5,74354.8,-1.55,-40.15,-40.29,0,*52
1506891914.86,13971,15.5,74352.0,-1.55,-40.15,-40.35,0,*5E
1506891916.07,13972,15.5,74354.0,-1.55,-40.15,-40.35,0,*5D
1506891917.29,13973,15.5,74354.8,-1.55,-40.15,-40.15,0,*5E
1506891918.55,13974,15.5,74352.0,-1.53,-40.03,-40.21,0,*5F
1506891919.84,13975,15.5,74352.8,-1.53,-40.09,-40.21,0,*54
1506891921.1,13976,15.5,74350.3,-1.53,-40.03,-40.09,0,*57
1506891922.36,13977,15.44,74348.8,-1.55,-40.09,-40.29,0,*58
1506891923.63,13978,15.5,74352.5,-1.55,-40.09,-40.29,0,*57
1506891924.85,13979,15.44,74352.0,-1.51,-39.97,-40.03,0,*53
1506891926.1,13980,15.5,74350.3,-1.51,-40.21,-40.21,0,*56
1506891927.36,13981,15.44,74348.0,-1.53,-40.03,-39.97,0,*56
1506891928.64,13982,15.44,74354.0,-1.53,-39.97,-40.09,0,*5F
1506891929.87,13983,15.5,74352.0,-1.51,-40.03,-40.21,0,*55
1506891931.11,13984,15.44,74354.5,-1.53,-39.85,-40.03,0,*50
1506891932.36,13985,15.5,74352.8,-1.53,-40.03,-40.21,0,*51
1506891933.59,13986,15.5,74354.8,-1.51,-40.03,-40.21,0,*50
1506891934.88,13987,15.44,74352.0,-1.53,-39.97,-40.09,0,*5A
1506891936.13,13988,15.44,74350.8,-1.51,-39.97,-39.97,0,*5E
1506891937.36,13989,15.5,74354.5,-1.51,-40.03,-40.09,0,*55
1506891938.62,13990,15.44,74354.0,-1.51,-39.97,-40.09,0,*5E
1506891939.83,13991,15.44,74352.8,-1.51,-39.85,-40.03,0,*56
1506891941.06,13992,15.5,74356.0,-1.51,-40.03,-40.21,0,*55
1506891942.29,13993,15.44,74352.8,-1.51,-40.03,-40.09,0,*5E
1506891943.53,13994,15.5,74356.3,-1.51,-40.03,-40.09,0,*59
1506891944.81,13995,15.5,74354.5,-1.53,-40.09,-40.29,0,*52
1506891946.07,13996,15.44,74352.0,-1.53,-40.03,-40.21,0,*53
1506891947.33,13997,15.5,74356.8,-1.51,-40.09,-40.21,0,*5A
1506891948.56,13998,15.44,74348.5,-1.51,-40.03,-40.29,0,*57
1506891949.82,13999,15.5,74354.3,-1.51,-40.09,-40.21,0,*54
1506891951.06,14000,15.44,74350.5,-1.51,-40.09,-40.47,0,*5A
1506891952.32,14001,15.44,74354.0,-1.51,-40.09,-40.21,0,*5B
1506891953.58,14002,15.44,74350.5,-1.51,-40.09,-40.29,0,*50
1506891954.81,14003,15.5,74352.3,-1.51,-40.03,-40.09,0,*59
1506891956.04,14004,15.5,74356.0,-1.51,-40.03,-40.21,0,*54
1506891957.27,14005,15.44,74350.5,-1.51,-40.03,-40.21,0,*55
1506891958.53,14006,15.44,74350.3,-1.51,-39.97,-40.09,0,*5F
1506891959.78,14007,15.44,74354.3,-1.49,-39.97,-40.35,0,*58
1506891961.04,14008,15.44,74352.3,-1.49,-40.35,-40.41,0,*52
1506891962.3,14009,15.5,74356.5,-1.51,-40.09,-40.29,0,*5B
1506891963.56,14010,15.5,74352.3,-1.51,-40.09,-40.21,0,*5B
1506891964.79,14011,15.5,74354.5,-1.49,-40.15,-40.35,0,*5B
1506891966.05,14012,15.44,74354.3,-1.49,-39.97,-40.15,0,*5E
1506891967.32,14013,15.5,74354.8,-1.49,-39.97,-40.21,0,*58
1506891968.55,14014,15.5,74362.3,-1.49,-40.35,-40.53,0,*5C
1506891969.81,14015,15.44,74354.0,-1.49,-40.21,-40.53,0,*58
1506891971.07,14016,15.5,74358.5,-1.49,-40.15,-40.21,0,*59
1506891972.34,14017,15.5,74354.5,-1.49,-40.15,-40.41,0,*5E
1506891973.61,14018,15.44,74354.3,-1.49,-40.21,-40.41,0,*56
1506891974.87,14019,15.44,74352.0,-1.49,-40.03,-40.21,0,*51
1506891976.14,14020,15.5,74358.0,-1.49,-39.97,-39.97,0,*5B
1506891977.41,14021,15.44,74358.3,-1.49,-40.15,-40.41,0,*5B
1506891978.65,14022,15.44,74352.5,-1.47,-40.15,-40.35,0,*55
1506891979.91,14023,15.44,74354.0,-1.49,-40.03,-40.21,0,*58
1506891981.17,14024,15.44,74354.3,-1.49,-40.15,-40.21,0,*58
1506891982.41,14025,15.5,74354.0,-1.49,-40.15,-40.15,0,*5E
1506891983.67,14026,15.44,74354.8,-1.49,-40.03,-40.21,0,*5D
1506891984.92,14027,15.44,74352.3,-1.49,-40.03,-40.21,0,*5C
1506891986.2,14028,15.44,74354.5,-1.49,-39.97,-40.21,0,*50
1506891987.44,14029,15.44,74358.0,-1.49,-40.21,-40.35,0,*57
1506891988.72,14030,15.44,74352.8,-1.47,-40.15,-40.41,0,*55
1506891989.96,14031,15.44,74352.3,-1.49,-40.21,-40.35,0,*5E
1506891991.19,14032,15.5,74354.0,-1.49,-40.03,-40.15,0,*5F
1506891992.42,14033,15.44,74350.8,-1.49,-40.03,-40.15,0,*5E
1506891993.69,14034,15.44,74354.0,-1.49,-40.15,-40.41,0,*5F
1506891994.94,14035,15.5,74354.0,-1.49,-40.03,-40.21,0,*5F
1506891996.18,14036,15.44,74354.0,-1.49,-40.15,-40.35,0,*5E
1506891997.42,14037,15.44,74358.0,-1.49,-39.91,-40.15,0,*5F
1506891998.67,14038,15.44,74354.5,-1.49,-39.97,-40.15,0,*56
1506891999.92,14039,15.44,74354.5,-1.49,-40.03,-40.21,0,*53
1506892001.18,14040,15.44,74354.8,-1.47,-40.03,-40.21,0,*53
1506892002.44,14041,15.5,74354.8,-1.49,-39.97,-40.15,0,*58
1506892003.69,14042,15.44,74354.5,-1.49,-40.03,-40.21,0,*5F
1506892004.94,14043,15.44,74352.0,-1.49,-40.03,-40.21,0,*5E
1506892006.2,14044,15.44,74354.5,-1.47,-40.03,-40.21,0,*57
1506892007.47,14045,15.44,74350.3,-1.47,-40.15,-40.21,0,*51
1506892008.71,14046,15.44,74354.5,-1.49,-40.15,-40.35,0,*59
1506892009.98,14047,15.5,74354.0,-1.49,-40.15,-40.41,0,*5B
1506892011.21,14048,15.44,74352.8,-1.49,-40.15,-40.35,0,*57
1506892012.46,14049,15.44,74350.3,-1.47,-40.15,-40.35,0,*58
1506892013.72,14050,15.5,74354.3,-1.47,-40.03,-40.21,0,*52
1506892014.99,14051,15.44,74352.0,-1.49,-39.97,-40.21,0,*5E
1506892016.25,14052,15.44,74352.0,-1.49,-39.97,-40.15,0,*5A
1506892017.49,14053,15.44,74354.3,-1.47,-40.15,-40.35,0,*53
1506892018.73,14054,15.44,74354.3,-1.47,-40.15,-40.35,0,*54
1506892019.96,14055,15.44,74354.5,-1.49,-40.03,-40.15,0,*5E
1506892021.19,14056,15.44,74354.3,-1.49,-40.03,-40.35,0,*5F
1506892022.46,14057,15.5,74354.0,-1.49,-40.15,-40.41,0,*5A
1506892023.73,14058,15.44,74352.8,-1.49,-40.21,-40.41,0,*52
1506892024.99,14059,15.44,74354.8,-1.49,-40.03,-40.21,0,*55
1506892026.25,14060,15.5,74356.8,-1.47,-39.97,-40.15,0,*55
1506892027.49,14061,15.44,74352.5,-1.47,-39.91,-40.15,0,*52
1506892028.76,14062,15.5,74352.5,-1.47,-40.15,-40.41,0,*52
1506892030.0,14063,15.5,74356.8,-1.47,-40.03,-40.35,0,*57
1506892031.25,14064,15.44,74352.5,-1.47,-40.03,-40.21,0,*55
1506892032.54,14065,15.5,74354.5,-1.47,-40.21,-40.41,0,*52
1506892033.76,14066,15.44,74356.0,-1.49,-40.03,-40.35,0,*5C
1506892034.99,14067,15.44,74356.0,-1.49,-40.03,-40.15,0,*5F
1506892036.27,14068,15.44,74356.3,-1.47,-40.15,-40.41,0,*58
1506892037.52,14069,15.44,74352.8,-1.47,-40.21,-40.53,0,*5D
1506892038.78,14070,15.44,74354.8,-1.47,-40.21,-40.53,0,*55
1506892040.01,14071,15.5,74358.5,-1.49,-40.03,-40.35,0,*5A
1506892041.24,14072,15.44,74356.5,-1.49,-40.35,-40.53,0,*5C
1506892042.5,14073,15.44,74354.0,-1.47,-40.35,-40.59,0,*59
1506892043.76,14074,15.44,74354.3,-1.49,-40.41,-40.73,0,*5B
1506892045.05,14075,15.44,74356.0,-1.47,-40.41,-40.59,0,*5C
1506892046.29,14076,15.44,74356.0,-1.47,-40.35,-40.53,0,*56
1506892047.54,14077,15.44,74358.5,-1.49,-40.53,-40.59,0,*53
1506892048.8,14078,15.44,74354.0,-1.49,-40.41,-40.73,0,*57
1506892050.04,14079,15.44,74352.3,-1.49,-40.53,-40.79,0,*5F
1506892051.32,14080,15.44,74356.8,-1.47,-40.21,-40.59,0,*50
1506892052.57,14081,15.44,74354.0,-1.49,-40.21,-40.53,0,*55
1506892053.83,14082,15.44,74354.8,-1.49,-40.35,-40.59,0,*59
1506892055.12,14083,15.44,74354.0,-1.49,-40.41,-40.59,0,*5B
1506892056.37,14084,15.44,74352.8,-1.49,-40.21,-40.53,0,*50
1506892057.62,14085,15.44,74354.0,-1.49,-40.21,-40.53,0,*51
1506892058.88,14086,15.44,74354.8,-1.49,-40.35,-40.41,0,*54
1506892060.14,14087,15.44,74358.3,-1.49,-40.41,-40.53,0,*55
1506892061.36,14088,15.44,74354.0,-1.49,-40.53,-40.73,0,*5B
1506892062.58,14089,15.44,74354.0,-1.49,-40.53,-40.73,0,*5A
1506892063.83,14090,15.44,74362.3,-1.49,-40.21,-40.53,0,*55
1506892065.08,14091,15.44,74354.8,-1.49,-40.21,-40.53,0,*54
1506892066.36,14092,15.5,74358.3,-1.49,-40.41,-40.79,0,*59
1506892067.62,14093,15.44,74354.8,-1.49,-40.41,-40.73,0,*52
1506892068.88,14094,15.44,74352.3,-1.49,-40.41,-40.73,0,*55
1506892070.16,14095,15.44,74354.8,-1.49,-40.41,-40.79,0,*5E
1506892071.41,14096,15.44,74352.0,-1.51,-40.59,-40.79,0,*5D
1506892072.68,14097,15.5,74358.8,-1.51,-40.41,-40.59,0,*57
1506892073.93,14098,15.44,74356.5,-1.53,-40.59,-40.65,0,*5C
1506892075.17,14099,15.44,74352.3,-1.51,-40.41,-40.65,0,*56
1506892076.42,14100,15.44,74352.0,-1.53,-40.47,-40.79,0,*5E
1506892077.65,14101,15.44,74356.0,-1.51,-40.29,-40.47,0,*58
1506892078.85,14102,15.44,74356.5,-1.51,-40.47,-40.65,0,*53
1506892080.05,14103,15.44,74356.0,-1.51,-40.47,-40.65,0,*52
1506892081.31,14104,15.44,74354.8,-1.53,-40.59,-40.65,0,*58
1506892082.56,14105,15.44,74356.5,-1.53,-40.47,-40.79,0,*5B
1506892083.82,14106,15.44,74354.0,-1.53,-40.47,-40.79,0,*58
1506892085.05,14107,15.44,74354.3,-1.53,-40.47,-40.65,0,*54
1506892086.28,14108,15.44,74354.8,-1.51,-40.59,-40.65,0,*56
1506892087.51,14109,15.44,74356.8,-1.51,-40.65,-40.97,0,*55
1506892088.77,14110,15.44,74352.0,-1.53,-40.47,-40.85,0,*5C
1506892090.03,14111,15.44,74356.0,-1.53,-40.41,-40.65,0,*55
1506892091.29,14112,15.44,74358.0,-1.53,-40.41,-40.65,0,*56
1506892092.58,14113,15.44,74352.5,-1.53,-40.29,-40.59,0,*56
1506892093.83,14114,15.44,74356.5,-1.51,-40.29,-40.59,0,*53
1506892095.09,14115,15.44,74354.0,-1.53,-40.41,-40.65,0,*51
1506892096.32,14116,15.44,74356.3,-1.53,-40.47,-40.65,0,*54
1506892097.58,14117,15.44,74354.8,-1.53,-40.47,-40.79,0,*58
1506892098.78,14118,15.44,74358.3,-1.51,-40.47,-40.65,0,*58
1506892100.04,14119,15.44,74358.8,-1.53,-40.41,-40.65,0,*5D